Temp_Advection
nan nan nan nan nan nan nan nan nan nan nan nan nan nan nan nan nan nan nan nan nan nan nan nan nan nan nan nan nan nan nan nan nan nan nan nan nan nan nan nan nan nan
nan 0 0 0 0 0 -0 -0 -0 -0 -0 0 0 0 0 -0 -1 -1 -1 -1 -1 -1 -1 -0 -0 -1 -1 -1 -1 -1 -1 -1 -1 -1 -1 -1 -1 -1 -1 -1 -1 nan
nan 0 0 0 0 0 0 -0 -0 -0 -0 -0 0 0 0 0 -0 -1 -1 -1 -1 -1 -1 -1 -1 -0 -1 -1 -2 -1 -1 -1 -2 -2 -2 -2 -1 -1 -1 -1 -1 nan
nan 1 1 0 0 0 0 -0 -0 -0 -0 -0 0 0 1 0 0 -0 -0 -1 -1 -1 -1 -1 -0 -0 -0 -1 -1 -1 -2 -1 -1 -2 -2 -2 -2 -2 -1 -1 -1 nan
nan 1 1 0 0 0 0 0 -0 -0 -0 -0 -0 0 1 1 1 0 0 -0 -1 -0 -0 -0 -0 -0 -0 -0 -0 -1 -1 -1 -1 -1 -2 -2 -2 -2 -2 -1 -1 nan
nan 0 1 1 0 0 0 0 0 0 0 -0 -0 0 0 1 1 1 1 0 -0 -0 -0 -0 -0 -0 -0 -0 -0 -0 -1 -1 -1 -1 -1 -2 -2 -2 -2 -1 -1 nan
nan -0 0 0 0 -0 -0 -0 0 0 0 0 0 0 0 0 1 1 1 0 0 0 -0 -0 0 -0 -0 -0 -0 -0 -0 -1 -1 -1 -1 -1 -2 -2 -2 -2 -2 nan
nan -1 0 0 -0 -1 -1 -0 -0 0 0 0 0 0 0 0 0 0 1 0 0 0 0 0 0 0 -0 -0 -0 -0 -0 -0 -1 -1 -1 -1 -1 -1 -1 -1 -2 nan
nan -0 -0 0 -0 -1 -1 -1 -1 -0 0 0 0 1 0 0 0 1 1 0 0 0 0 0 0 0 -0 -0 -0 -0 -1 -1 -1 -1 -1 -1 -1 -1 -0 -1 -1 nan
nan -0 -0 -0 -0 -0 -0 -0 -0 -0 -0 0 0 0 0 0 1 1 0 -0 0 0 0 1 1 0 0 -0 -0 -0 -1 -1 -1 -1 -1 -1 -1 -1 -0 0 -0 nan
nan -0 -1 -1 -0 -0 -0 -0 -0 -0 -0 -0 0 0 1 1 1 0 -0 -0 0 0 0 0 1 1 1 0 -0 -0 -1 -1 -1 -1 -1 -1 -0 -0 -0 0 0 nan
nan -1 -1 -1 -1 -1 -1 -0 -0 -0 -0 -0 0 0 0 0 0 -0 -0 -0 -0 -0 0 0 0 0 0 0 0 -0 -1 -1 -1 -1 -1 -1 -0 -0 -0 -0 0 nan
nan -1 -1 -1 -1 -1 -1 -0 -0 -0 -0 -0 -0 0 0 0 -0 -0 -0 -0 -0 -0 -0 0 0 0 0 0 -0 -0 -0 -1 -1 -1 -1 -0 0 0 -0 -0 -0 nan
nan -1 -1 -1 -1 -1 -1 -0 -0 -0 -0 -0 0 0 0 0 0 0 0 0 0 0 0 0 0 -0 -0 -0 -0 -0 -0 -0 -1 -0 -0 0 0 0 -0 -0 -0 nan
nan -1 -1 -1 -1 -1 -1 -1 -1 -1 -1 -0 -0 -0 0 0 0 0 0 0 0 0 0 0 -0 -0 -0 -0 -0 -0 -0 -0 -0 -0 0 0 0 -0 -0 -0 -0 nan
nan -2 -2 -1 -1 -1 -1 -1 -1 -1 -1 -1 -1 -0 0 0 0 0 0 -0 -0 -0 -0 -0 -0 -0 -0 -0 -0 -0 -0 -0 -0 -0 0 0 -0 -0 -0 -0 -0 nan
nan -2 -2 -1 -1 -1 -1 -1 -1 -1 -1 -1 -0 -0 0 0 0 0 0 -0 -0 -0 -0 -0 -0 -0 -0 -0 -0 0 -0 -0 -0 0 0 -0 -0 -0 -0 -0 -0 nan
nan -1 -2 -1 -1 -1 -0 -0 -1 -1 -1 -0 -0 -0 0 0 -0 -0 -0 -0 -0 -0 -0 -0 -0 -0 -0 -0 -0 -0 -0 -0 0 0 -0 -0 0 -0 -1 -1 -0 nan
nan -1 -1 -1 -1 -1 -0 0 0 -0 -0 -0 -0 -0 -0 -0 -0 -0 -0 -0 -0 -1 -0 -0 -0 0 -0 -0 -0 -0 -0 0 0 -0 -0 -0 0 -0 -0 -0 -0 nan
nan -1 -1 -1 -1 -1 -1 -0 -0 0 -0 -0 -0 -0 -1 -1 -1 -1 -0 -0 -0 -1 -1 -0 -0 -0 -0 -0 -0 -0 -0 0 0 -0 -0 -0 0 0 0 -0 -0 nan
nan -1 -1 -1 -1 -1 -1 -1 -0 -0 -1 -1 -1 -1 -1 -1 -1 -0 -0 -0 -0 -1 -1 -0 -0 -0 -0 0 0 -0 -0 0 0 -0 -0 -0 0 0 -0 -0 -0 nan
nan -1 -1 -1 -1 -0 -1 -1 -1 -1 -1 -1 -1 -1 -1 -1 -1 -0 -0 -0 -0 -0 -1 -1 -0 -0 -0 0 0 -0 -0 0 -0 -0 -0 0 -0 -0 -0 -0 -0 nan
nan -1 -1 -1 -1 -1 -0 -0 -1 -1 -1 -1 -1 -1 -1 -0 -0 -0 -0 -0 -0 -0 -1 -1 -0 0 0 0 -0 -0 -0 0 -0 -0 -0 -0 -0 -0 -0 -0 -0 nan
nan -0 -1 -1 -1 -1 -0 -0 -1 -1 -1 -1 -1 -1 -1 -0 -0 -0 -0 -0 -0 -0 -0 -1 -0 0 0 -0 -0 0 0 -0 -0 -0 -0 -0 -0 -0 -0 -0 -0 nan
nan -1 -1 -1 -0 -0 -0 -0 -1 -1 -0 -1 -1 -1 -1 -1 -0 -1 -0 -0 -0 -0 -0 -0 -0 0 0 -0 -0 0 0 -0 -0 -0 -0 0 0 -0 -0 -0 -0 nan
nan nan nan nan nan nan nan nan nan nan nan nan nan nan nan nan nan nan nan nan nan nan nan nan nan nan nan nan nan nan nan nan nan nan nan nan nan nan nan nan nan nan
Wind_Speed
26 26 26 26 26 26 26 27 28 28 26 23 21 21 21 22 23 23 24 25 26 27 28 29 28 26 25 24 24 25 25 24 24 23 23 22 22 23 24 25 26 26
28 28 27 27 26 26 26 27 28 28 27 24 23 23 24 23 23 24 24 25 26 28 29 30 30 29 28 26 25 26 27 27 26 25 25 24 23 23 23 24 26 26
29 29 29 28 27 27 26 27 28 28 27 25 24 24 24 24 24 24 25 26 27 28 30 31 31 31 30 29 28 28 28 29 29 28 27 26 25 24 24 24 25 26
32 31 30 29 28 27 27 27 28 28 26 25 26 26 25 25 25 25 26 27 28 29 31 32 32 32 32 31 31 31 31 31 31 31 30 29 28 27 25 24 25 25
35 34 32 30 29 27 28 28 29 28 26 25 26 26 26 26 26 27 27 28 28 29 31 32 33 33 33 33 33 33 33 33 33 33 32 32 30 29 27 25 25 25
39 38 34 31 29 28 29 30 29 28 26 25 26 27 27 27 27 27 28 29 30 30 31 33 33 33 33 33 34 34 34 34 34 34 34 34 33 31 28 26 25 25
39 39 35 31 30 30 30 31 30 29 28 27 26 27 27 27 27 27 28 30 31 31 32 33 33 33 33 33 34 35 34 34 35 35 35 36 35 32 29 26 25 25
33 34 32 31 32 32 32 32 31 30 29 28 27 27 27 27 27 27 28 30 31 32 32 33 34 33 33 33 34 34 34 34 35 35 36 37 36 34 28 24 24 24
26 27 29 30 32 33 33 33 33 32 31 30 29 27 27 28 28 27 28 30 31 32 33 34 34 33 32 33 33 33 34 34 35 36 37 37 36 33 27 23 22 21
25 26 27 29 30 30 31 31 32 32 32 32 31 29 29 29 28 27 28 29 31 33 33 34 34 33 32 32 32 33 33 34 35 36 37 37 35 31 25 21 19 17
25 25 25 26 27 27 27 27 28 30 30 31 31 30 29 27 26 25 26 29 31 32 33 34 34 33 33 33 32 32 33 35 36 37 37 36 31 27 22 19 17 16
25 25 25 25 26 26 27 27 27 27 28 28 28 27 26 24 24 25 26 28 30 31 32 33 33 33 33 33 32 32 33 35 36 37 37 33 27 23 20 17 16 16
27 27 27 27 27 28 28 28 28 27 26 26 26 26 25 24 24 25 26 27 28 29 30 31 32 33 33 32 33 33 35 36 36 37 35 28 22 20 17 15 15 17
28 28 29 29 29 30 30 30 30 29 29 29 28 27 25 24 23 24 25 26 27 28 28 30 31 31 31 32 34 35 35 36 36 35 30 23 18 16 16 16 16 16
32 32 32 32 31 31 30 29 28 28 27 26 25 24 22 21 21 22 23 24 25 26 27 28 29 30 32 34 35 36 36 36 35 30 24 19 17 15 16 17 17 17
32 32 31 30 29 28 27 25 23 22 22 21 20 20 19 20 20 21 23 24 25 26 27 29 30 33 34 36 37 37 36 34 32 26 19 15 14 15 17 17 18 19
32 31 30 29 28 27 25 23 21 20 19 18 18 18 18 19 21 22 24 25 27 28 30 32 34 36 37 37 37 35 31 28 26 21 16 15 16 17 17 17 18 17
34 32 31 30 28 26 24 22 20 18 18 17 17 18 19 21 22 24 26 28 30 32 34 36 37 37 37 35 32 28 24 22 21 18 16 17 18 17 17 18 17 17
32 31 30 29 28 27 25 23 22 21 20 20 21 22 24 25 27 29 31 33 34 35 36 37 36 33 31 28 25 23 21 18 17 17 18 19 18 17 17 17 17 17
32 31 30 29 27 27 27 27 28 28 27 28 28 29 30 31 32 33 34 34 34 33 33 32 29 27 25 23 23 21 17 15 16 18 18 17 17 16 15 15 15 16
32 30 29 28 27 27 27 29 30 32 32 32 31 31 32 32 32 32 30 29 28 27 27 27 25 24 23 22 20 16 12 13 16 16 16 16 15 14 13 14 16 17
29 28 28 28 28 28 29 30 31 32 32 32 32 32 32 31 29 28 27 26 25 25 26 26 24 23 22 20 16 12 11 14 16 16 15 15 13 13 13 15 15 16
28 28 29 29 30 31 31 31 30 30 31 31 31 31 30 28 27 26 26 25 25 25 25 24 23 20 18 16 12 10 11 14 15 13 12 12 11 11 13 13 13 12
27 28 30 31 31 31 30 29 29 29 29 29 29 29 28 27 26 26 25 23 23 23 22 21 19 16 14 13 9 8 11 14 14 12 11 10 10 12 12 11 11 10
28 29 31 31 30 29 29 29 29 29 29 28 27 26 26 25 25 24 23 21 20 20 18 17 15 12 10 9 7 7 11 13 12 11 11 10 10 11 10 9 9 9
29 30 30 29 27 27 28 28 29 29 27 25 24 24 24 23 22 21 20 19 17 17 15 13 11 8 6 5 5 7 10 10 8 8 9 8 8 7 7 8 10 10
Wind_Direction
308 307 308 311 315 318 319 320 322 322 317 311 311 316 321 323 324 326 327 329 330 331 332 333 333 334 334 333 332 332 333 332 331 327 321 314 308 301 295 291 288 286
303 303 302 303 307 311 314 316 318 319 314 305 305 312 317 319 321 323 324 326 328 329 330 330 330 331 332 332 331 331 332 332 331 329 325 320 315 308 301 296 291 288
299 299 297 298 301 304 309 311 313 315 312 303 303 309 312 315 318 319 321 323 325 327 328 328 328 328 329 331 331 330 331 331 331 330 327 324 321 315 309 302 295 291
295 296 293 293 296 300 304 306 308 310 309 303 303 306 308 311 313 315 317 319 321 323 325 326 326 325 326 328 329 330 330 330 331 330 328 327 325 318 313 308 301 294
292 292 289 288 291 296 299 301 303 304 304 303 304 304 304 306 308 311 313 314 316 319 321 323 323 322 323 324 326 328 328 329 329 329 327 327 327 322 316 310 305 300
291 289 286 286 289 294 296 297 299 299 299 301 302 301 300 301 303 306 308 309 311 314 317 319 319 318 319 320 322 324 325 326 327 327 327 327 327 324 319 313 307 302
292 289 285 286 289 291 294 294 295 295 296 297 297 296 297 297 299 301 302 303 305 309 312 314 314 313 314 315 317 319 321 323 325 325 325 327 327 324 320 314 307 301
295 290 285 286 289 291 292 293 293 293 293 293 292 292 293 292 293 294 295 297 301 305 308 309 309 308 309 311 312 314 316 319 322 323 324 325 326 323 319 313 304 298
299 292 286 288 291 291 292 292 291 289 288 286 287 288 287 286 286 287 288 292 297 302 304 306 305 304 304 306 308 311 314 316 319 321 323 324 323 320 317 310 300 296
301 294 291 291 291 290 290 290 288 285 283 282 283 283 281 279 278 278 280 287 294 299 301 302 301 300 301 303 306 309 312 314 317 319 320 322 320 316 312 304 296 294
304 300 297 295 293 292 290 288 286 284 281 281 281 279 276 275 274 276 281 288 293 296 297 297 296 296 298 301 304 308 311 314 316 317 319 320 315 309 306 297 289 290
314 312 311 309 307 304 300 296 291 287 284 283 281 279 279 279 282 285 287 289 290 291 291 291 292 293 296 299 303 308 311 313 315 317 319 317 308 301 299 290 279 282
320 319 318 316 313 310 307 303 299 294 291 290 289 288 288 288 288 287 286 285 284 285 285 286 288 291 294 298 302 307 311 313 315 317 316 311 299 293 292 282 274 279
318 315 313 311 309 307 305 303 300 298 296 295 294 293 292 289 285 281 279 278 279 280 282 284 287 290 293 298 302 307 311 313 313 314 311 302 288 284 285 282 277 279
317 315 313 312 310 309 307 305 303 301 299 298 296 293 290 285 280 275 273 274 276 279 281 284 288 291 295 300 304 308 310 311 310 309 303 290 281 283 286 286 287 285
319 320 319 317 315 314 312 309 308 306 304 302 297 291 285 280 277 275 275 277 280 282 285 288 291 294 298 302 305 308 309 308 306 305 297 285 284 289 286 282 284 283
323 323 323 322 320 319 318 315 312 309 307 303 296 288 281 278 278 279 280 282 284 287 289 292 294 297 300 302 303 304 304 302 300 299 294 288 286 285 281 276 274 273
324 323 324 325 324 321 319 317 314 308 302 295 287 283 280 280 282 284 286 287 288 289 291 292 294 296 298 299 299 299 297 296 294 290 287 285 280 275 271 269 271 275
323 322 323 324 323 318 311 308 305 301 296 290 287 287 288 288 290 291 292 293 293 293 293 293 295 296 297 298 297 296 295 293 286 281 282 282 274 265 262 265 270 278
319 319 320 320 320 315 309 304 300 298 297 295 294 295 296 297 297 297 295 295 294 294 294 295 296 297 297 297 295 294 293 287 279 279 280 275 265 260 262 269 278 284
317 316 316 316 315 313 310 307 304 301 299 299 299 300 301 302 302 300 298 297 296 296 296 296 297 298 297 295 293 292 287 278 276 279 277 270 267 270 276 282 286 288
315 314 313 313 312 311 308 306 303 302 301 301 301 302 303 303 302 300 298 298 297 297 296 295 296 296 295 292 289 284 277 276 279 282 280 278 280 283 284 286 287 288
312 312 312 312 312 310 306 303 302 301 302 302 302 302 302 301 300 298 298 297 297 296 295 296 297 295 293 291 284 274 275 281 286 288 285 283 282 280 282 287 290 288
310 311 313 313 312 308 305 303 303 303 304 304 302 301 300 300 300 299 299 299 298 297 297 297 298 297 293 287 275 267 279 288 290 287 280 272 271 276 284 288 287 283
310 313 314 313 309 304 302 302 303 305 305 304 302 300 300 301 301 301 301 301 299 298 300 300 300 300 292 282 269 264 277 285 284 279 272 266 270 279 285 285 280 274
311 315 315 311 306 303 302 303 304 305 305 302 301 301 302 303 303 302 302 302 300 300 301 301 303 302 285 277 279 272 273 275 272 268 266 267 272 276 280 283 280 274
Height
1502 1501 1499 1498 1496 1495 1493 1491 1489 1488 1486 1484 1483 1482 1480 1479 1478 1477 1475 1474 1472 1470 1469 1468 1466 1466 1465 1463 1462 1461 1460 1459 1457 1456 1455 1454 1453 1452 1451 1450 1449 1448
1499 1498 1496 1495 1493 1492 1490 1489 1487 1485 1484 1482 1481 1479 1478 1476 1475 1474 1473 1471 1470 1468 1467 1465 1464 1463 1462 1461 1460 1458 1457 1456 1455 1454 1453 1452 1451 1449 1448 1447 1446 1445
1496 1495 1493 1491 1490 1489 1487 1486 1484 1483 1481 1480 1478 1477 1475 1474 1472 1471 1470 1469 1468 1466 1465 1463 1462 1460 1459 1458 1457 1456 1455 1453 1452 1451 1450 1449 1448 1446 1445 1444 1443 1443
1493 1491 1489 1488 1487 1485 1484 1483 1481 1480 1478 1477 1475 1474 1472 1471 1470 1469 1468 1466 1465 1464 1463 1461 1460 1458 1457 1456 1454 1453 1452 1451 1450 1448 1447 1446 1445 1444 1443 1441 1440 1439
1489 1487 1486 1484 1483 1482 1481 1479 1478 1477 1475 1474 1473 1471 1470 1468 1467 1466 1465 1464 1463 1461 1460 1459 1458 1456 1455 1453 1452 1451 1449 1448 1447 1446 1444 1443 1442 1441 1440 1438 1437 1436
1484 1483 1482 1481 1479 1478 1477 1475 1474 1473 1472 1471 1470 1468 1467 1466 1464 1463 1462 1461 1460 1459 1458 1456 1455 1454 1452 1451 1449 1448 1447 1446 1444 1443 1441 1440 1439 1438 1436 1435 1434 1433
1479 1479 1478 1477 1476 1474 1473 1472 1471 1470 1469 1468 1466 1465 1464 1463 1462 1461 1459 1458 1457 1456 1455 1454 1452 1451 1450 1449 1447 1446 1444 1443 1442 1440 1439 1437 1436 1434 1433 1432 1431 1429
1474 1474 1474 1473 1472 1470 1470 1468 1467 1466 1465 1464 1463 1462 1461 1459 1458 1457 1456 1455 1453 1452 1451 1450 1449 1448 1447 1446 1445 1443 1442 1440 1439 1438 1436 1435 1433 1431 1430 1429 1428 1426
1470 1470 1470 1468 1467 1466 1465 1464 1463 1463 1462 1460 1459 1458 1457 1456 1455 1454 1452 1451 1450 1449 1448 1447 1446 1445 1444 1443 1442 1440 1439 1438 1436 1435 1433 1432 1430 1428 1427 1426 1425 1424
1467 1466 1465 1464 1462 1461 1460 1459 1459 1458 1457 1456 1455 1454 1453 1452 1451 1449 1448 1448 1447 1446 1444 1443 1442 1441 1440 1440 1439 1438 1436 1435 1434 1432 1431 1429 1427 1426 1424 1423 1422 1421
1465 1463 1461 1460 1458 1457 1456 1455 1454 1454 1453 1452 1451 1450 1449 1448 1446 1445 1445 1444 1443 1442 1441 1440 1439 1438 1437 1436 1435 1434 1433 1432 1430 1429 1428 1426 1424 1423 1422 1421 1420 1419
1462 1460 1459 1457 1456 1454 1453 1452 1451 1450 1449 1448 1447 1446 1445 1444 1443 1442 1441 1440 1439 1438 1437 1436 1435 1434 1433 1432 1432 1431 1430 1428 1427 1426 1424 1423 1421 1420 1419 1419 1418 1417
1460 1458 1457 1455 1453 1452 1451 1449 1448 1447 1445 1444 1443 1443 1442 1440 1439 1438 1437 1436 1435 1434 1433 1432 1432 1431 1430 1429 1428 1427 1426 1425 1424 1422 1421 1420 1418 1417 1417 1416 1415 1415
1458 1456 1454 1453 1451 1450 1448 1446 1445 1443 1442 1441 1440 1439 1438 1437 1436 1435 1434 1433 1432 1430 1430 1429 1428 1427 1426 1426 1425 1424 1423 1421 1420 1419 1418 1416 1416 1415 1415 1414 1413 1413
1455 1453 1451 1449 1447 1446 1444 1442 1441 1439 1438 1437 1436 1435 1434 1433 1432 1431 1430 1429 1428 1427 1427 1426 1425 1424 1423 1422 1421 1420 1419 1418 1416 1416 1415 1413 1413 1413 1412 1412 1411 1410
1453 1450 1448 1446 1444 1442 1440 1439 1437 1436 1435 1433 1432 1432 1431 1430 1429 1429 1428 1426 1425 1424 1423 1423 1422 1421 1420 1419 1418 1416 1415 1413 1412 1412 1411 1411 1410 1410 1410 1409 1409 1408
1450 1448 1445 1443 1441 1439 1437 1436 1434 1433 1432 1431 1430 1429 1428 1428 1427 1426 1425 1423 1422 1421 1420 1419 1418 1417 1416 1415 1414 1413 1412 1411 1409 1409 1408 1408 1408 1408 1408 1407 1407 1406
1447 1445 1443 1441 1439 1437 1435 1434 1433 1431 1430 1429 1428 1427 1426 1425 1424 1423 1421 1420 1419 1418 1416 1415 1414 1413 1413 1411 1411 1410 1409 1408 1407 1406 1406 1406 1406 1405 1405 1405 1405 1405
1445 1443 1441 1439 1437 1435 1433 1432 1431 1429 1428 1427 1425 1424 1423 1422 1421 1419 1418 1416 1415 1414 1412 1411 1410 1409 1409 1408 1407 1406 1406 1405 1404 1404 1404 1403 1403 1403 1403 1403 1403 1403
1442 1440 1438 1436 1435 1433 1431 1429 1428 1426 1425 1423 1422 1420 1419 1418 1416 1415 1414 1412 1411 1409 1408 1407 1406 1406 1405 1404 1403 1403 1403 1403 1402 1401 1401 1401 1401 1401 1401 1401 1401 1401
1439 1437 1435 1433 1432 1430 1428 1426 1424 1422 1421 1419 1418 1416 1415 1413 1412 1410 1409 1408 1407 1406 1404 1403 1403 1402 1401 1400 1400 1400 1400 1400 1399 1399 1399 1399 1399 1399 1399 1399 1399 1399
1436 1434 1432 1430 1428 1426 1424 1422 1420 1419 1417 1415 1414 1412 1411 1409 1408 1407 1405 1404 1403 1402 1400 1399 1399 1398 1398 1397 1397 1398 1398 1397 1397 1397 1397 1397 1397 1397 1397 1397 1397 1397
1433 1431 1428 1426 1425 1422 1420 1418 1417 1415 1413 1411 1410 1408 1407 1406 1404 1403 1402 1401 1400 1398 1397 1396 1396 1395 1395 1394 1394 1395 1396 1395 1395 1395 1395 1395 1395 1395 1395 1395 1395 1395
1430 1428 1425 1423 1421 1419 1416 1415 1413 1411 1410 1408 1406 1404 1403 1402 1401 1400 1399 1398 1396 1395 1394 1393 1393 1393 1392 1392 1392 1393 1393 1393 1393 1393 1393 1393 1393 1393 1393 1394 1393 1393
1427 1424 1422 1419 1417 1415 1413 1411 1410 1408 1406 1405 1403 1401 1400 1399 1398 1396 1395 1395 1393 1392 1392 1391 1390 1391 1390 1390 1391 1391 1391 1391 1391 1391 1391 1391 1392 1392 1392 1392 1392 1392
1424 1421 1419 1416 1414 1412 1410 1408 1407 1405 1403 1401 1400 1399 1397 1396 1395 1394 1393 1392 1391 1390 1390 1389 1389 1389 1389 1389 1389 1389 1389 1389 1389 1390 1390 1390 1390 1391 1391 1391 1391 1391